Location: Hanover
(52.3667°N, 9.7167°E)
Time: 08:25:28
(UTC+01:00)

CUBESAT XI-V - Pass Details

Date: 16 November 2024
Orbit: 652 x 673 km, 98.2° (Epoch: 04 December)

Event Time Altitude Azimuth Distance (km) Brightness Sun altitude
Rises 17:35:32 0° 2° (N) 3,033 ? -10.4°
Reaches altitude 10° 17:38:53 10° 336° (NNW) 2,109 ? -10.9°
Maximum altitude 17:41:01 13° 309° (NW) 1,892 ? -11.2°
Drops below altitude 10° 17:43:08 10° 281° (W) 2,097 ? -11.5°
Sets 17:46:27 0° 254° (WSW) 3,000 ? -12.0°
